Weather Roundup
Issued by NWS Chicago, IL

Home | Current Version | Previous Version | Text Only | Print | Product List | Glossary On
Versions: 1 2 3 4 5 6 7 8 9 10 11 12 13 14 15 16 17 18 19 20 21 22 23 24 25 26 27 28 29 30 31 32 33 34 35 36 37 38 39 40 41 42 43 44 45 46 47 48 49 50
000
NZUS59 KLOT 312021
HRRLOT

CHICAGO AREA WEATHER ROUNDUP
NATIONAL WEATHER SERVICE CHICAGO/ROMEOVILLE IL
300 PM CDT FRI JUL 31 2015

NOTE: "FAIR" INDICATES FEW OR NO CLOUDS BELOW 12,000 FEET WITH NO
SIGNIFICANT WEATHER AND/OR OBSTRUCTIONS TO VISIBILITY.

* THESE STATIONS ARE NOT UNDER NWS QUALITY CONTROL. THEY ALSO MAY NOT
  REPORT WEATHER SUCH AS PRECIPITATION OR FOG.

ILZ005-006-012>014-019>023-312100-
NORTHEAST ILLINOIS

CITY           SKY/WX    TMP DP  RH WIND       PRES   REMARKS
OHARE          MOSUNNY   86  53  32 NW17G28   29.95F HX  84
MIDWAY         MOSUNNY   89  51  27 W22G29    29.94F HX  86
AURORA         SUNNY     85  54  34 NW18G28   29.98F HX  83
LANSING*       MOSUNNY   88  52  29 W16G24    29.95F HX  85
JOLIET*        SUNNY     87  56  34 W10G18    29.97F HX  86
WAUKEGAN       MOSUNNY   83  51  33 W12G22    29.94F HX  81
DUPAGE AIRPORT MOSUNNY   85  51  31 NW17G26   29.97F HX  83
WHEELING       SUNNY     86  48  26 NW22G32   29.95F HX  83
KANKAKEE*      SUNNY     86  58  38 W15       29.99F HX  85
MORRIS*        SUNNY     84  60  44 NW15G24   29.98S HX  84
LEWIS AIRPORT* SUNNY     85  51  30 NW22G30   29.97F HX  83
NORTHERLY IS     N/A     86  46  24 W20         N/A  HX  83
$$

WIZ051-052-058>065-066-070>072-312100-
SOUTHEAST WISCONSIN

CITY           SKY/WX    TMP DP  RH WIND       PRES   REMARKS
MILWAUKEE      MOSUNNY   83  47  28 NW17G30   29.94R HX  81
KENOSHA*       SUNNY     83  50  31 W16G28    29.95S HX  81
RACINE*        SUNNY     83  46  27 NW18G28   29.95F HX  81
BURLINGTON     SUNNY     82  44  26 NW17G29   29.96F HX  80
WAUKESHA       MOSUNNY   81  46  30 NW23G30   29.97S HX  80
WEST BEND      PTSUNNY   79  45  29 W17G28    29.94S
$$

INZ001>003-010>013-019-020-312100-
NORTHWEST INDIANA

CITY           SKY/WX    TMP DP  RH WIND       PRES   REMARKS
GARY*          MOSUNNY   88  52  29 W16G32    29.95F HX  85
MICHIGAN CITY* NOT AVBL
RENSSELAER*    NOT AVBL
VALPARAISO     SUNNY     86  54  33 NW15G23   29.95F HX  84
$$

LMZ740>746-312100-
SOUTHERN LAKE MICHIGAN

STATION/POSITION TIME  SKY/WX   TEMP WIND        PRES    VSBY
                                AIR  DIR/SP/G
                 (UTC)          (F)  (DEG/KT/KT) (MB)    (MI)
HARRISON CRIB    2000            82  290/ 20/ 26   N/A
BURNHAM HARBOR   2000            85  280/ 15/ 21   N/A
CALUMET HARBOR   1900            87  280/  8/ 18   N/A
BURNS HARBOR     1900            78  330/  1/  4 1014.9F
MICHIGAN CITY    2000            79  250/  5/  6   N/A
$$

ABBREVIATIONS USED IN REMARKS
   TC - TEMPERATURE IN CELSIUS
  WCI - WIND CHILL INDEX
   HX - HEAT INDEX
  VSB - VISIBILITY
$$



USA.gov is the U.S. government's official web portal to all federal, state and local government web resources and services.